Погода в Кучугуре

Россия / Новосибирская область     53°59′46″N   78°12′46″E
темп.,
°C
ветер,
м/с
пор.,
м/с
влажн.,
%
обл.,
%
осадки,
мм/ч
давл.,
гПа
погр.,
м
8 марта, пн
пн801:00−5ю71592100 0.0 1015379
04:00−4ю71591100 0.0 1013388
07:00−3ю81490100 0.0 1011434
10:00−3ю81690100 0.0 1007474
13:00−2ююз91584100 0.0 1005728
16:00−1зюз81296100 0.4 1006873
19:00−6зсз71190100 1.3 1010620
22:00−13з5119233 0.0 1016202
9 марта, вт
вт901:00−15зюз5109423 0.0 1021179
04:00−17юз479345 0.0 1022127
07:00−17ююз5129536 0.0 1023202
10:00−15ююз6128848 0.0 1023307
13:00−11ююз7128641 0.0 1023462
16:00−9ююз7118679 0.0 1023516
19:00−9ююз6138769 0.0 1021366
22:00−12ююз512910 0.0 1021223
10 марта, ср
ср1001:00−12ююз5129033 0.0 1020224
04:00−13ююз5108892 0.0 1018193
07:00−14ююз358796 0.0 101885
10:00−12ю3586100 0.0 1017152
13:00−8ююв4684100 0.0 1014262
16:00−6вюв5991100 0.0 1009346
19:00−3юв61396100 0.4 1004618
22:00+1ююз815100100 2.2 999558
11 марта, чт
чт1101:00+1юз91697100 2.6 999830
04:00−8зюз9159099 0.1 1003701
07:00−12юз6129399 0.1 1008302
10:00−11юз6139398 0.0 1010382
13:00−7юз8129099 0.1 1011777
16:00−7юз81385100 0.1 1013833
19:00−9юз6148470 0.1 1014590
22:00−11ю5138853 0.0 1014298
12 марта, пт
пт1201:00−7ююз8169376 0.1 1012712
04:00−12зюз81585100 0.3 1012674
07:00−17юз7159083 0.3 1016494
10:00−18юз7139299 0.0 1018520
13:00−16зюз71190100 0.1 1020641
16:00−15зюз71187100 0.1 1022847
19:00−16зюз51090100 0.1 1023483
22:00−21з479897 0.0 102699